FW1767 Weather Reports


time (UTC)temp
C
wind
direction
speed
KPH
gust
KPH
rain 1hr
cm
rain 24hr
cm
rain mn
cm
humidity
%
barometer
mb
20260502194529 22 0.0 0.0 0.00 0.00 0.00 31 1014.9
20260502193027 21 0.0 0.0 0.00 0.00 0.00 32 1015.0
20260502191522 21 0.0 0.0 0.00 0.00 0.00 33 1015.3
20260502190019 20 0.0 0.0 0.00 0.00 0.00 34 1015.6
20260502184516 19 0.0 0.0 0.00 0.00 0.00 35 1015.7
20260502183011 18 0.0 0.0 0.00 0.00 0.00 36 1016.1
20260502181508 17 0.0 0.0 0.00 0.00 0.00 37 1016.2
20260502170109 12 0.0 0.0 0.00 0.00 0.00 40 1016.8
20260502163059 11 0.0 0.0 0.00 0.00 0.00 39 1016.6
20260502161600 10 0.0 0.0 0.00 0.00 0.00 38 1016.7
20260502151554 7 0.0 0.0 0.00 0.00 0.00 34 1016.7
20260502123046 8 0.0 0.0 0.00 0.00 0.00 30 1015.9
20260502121542 8 0.0 0.0 0.00 0.00 0.00 30 1015.6
20260502114534 9 0.0 0.0 0.00 0.00 0.00 29 1016.0
20260502113032 9 0.0 0.0 0.00 0.00 0.00 29 1016.1
20260502111537 10 0.0 0.0 0.00 0.00 0.00 28 1016.1
20260502110034 10 0.0 0.0 0.00 0.00 0.00 28 1016.1
20260502104528 10 0.0 0.0 0.00 0.00 0.00 28 1016.1
20260502103024 10 0.0 0.0 0.00 0.00 0.00 27 1015.7
20260502101521 11 0.0 0.0 0.00 0.00 0.00 27 1015.5
20260502091513 12 0.0 0.0 0.00 0.00 0.00 26 1015.4
20260502070052 15 0.0 0.0 0.00 0.00 0.00 22 1015.8
20260502064548 16 0.0 0.0 0.00 0.00 0.00 22 1015.4
20260502063048 16 0.0 0.0 0.00 0.00 0.00 21 1015.1
20260502061543 16 0.0 0.0 0.00 0.00 0.00 21 1015.1
20260502060040 17 0.0 0.0 0.00 0.00 0.00 20 1014.8
20260502054543 17 0.0 0.0 0.00 0.00 0.00 19 1014.9
20260502053039 18 0.0 0.0 0.00 0.00 0.00 19 1014.8
20260502051539 18 0.0 0.0 0.00 0.00 0.00 19 1014.6
20260502050038 18 0.0 0.0 0.00 0.00 0.00 18 1014.6
20260502044538 19 0.0 0.0 0.00 0.00 0.00 18 1014.7
20260502043038 20 0.0 0.0 0.00 0.00 0.00 17 1014.7
20260502041537 20 0.0 0.0 0.00 0.00 0.00 17 1014.6
20260502040036 21 0.0 0.0 0.00 0.00 0.00 17 1014.6
20260502034536 21 0.0 0.0 0.00 0.00 0.00 17 1014.4
20260502033043 22 0.0 0.0 0.00 0.00 0.00 17 1014.3
20260502031535 22 0.0 0.0 0.00 0.00 0.00 17 1014.1
20260502030034 23 0.0 0.0 0.00 0.00 0.00 17 1014.0
20260502024534 23 0.0 0.0 0.00 0.00 0.00 16 1013.8
20260502023034 24 0.0 0.0 0.00 0.00 0.00 16 1013.5
20260502021532 25 0.0 0.0 0.00 0.00 0.00 17 1013.4
20260502020033 25 0.0 0.0 0.00 0.00 0.00 18 1013.3
20260502014531 25 0.0 0.0 0.00 0.00 0.00 20 1013.2
20260502013033 25 0.0 0.0 0.00 0.00 0.00 20 1013.1
20260502011530 25 0.0 0.0 0.00 0.00 0.00 20 1013.1
20260502010029 25 0.0 0.0 0.00 0.00 0.00 20 1013.1
20260502004546 26 0.0 0.0 0.00 0.00 0.00 21 1013.2
20260502003028 26 0.0 0.0 0.00 0.00 0.00 21 1013.2
20260502001527 26 0.0 0.0 0.00 0.00 0.00 22 1013.3
20260502000041 26 0.0 0.0 0.00 0.00 0.00 22 1013.4
20260501234530 26 0.0 0.0 0.00 0.00 0.00 22 1013.5
20260501233023 26 0.0 0.0 0.00 0.00 0.00 23 1013.6
20260501231535 26 0.0 0.0 0.00 0.00 0.00 23 1013.7
20260501230023 26 0.0 0.0 0.00 0.00 0.00 24 1014.0
20260501224516 26 0.0 0.0 0.00 0.00 0.00 24 1014.1
20260501223013 25 0.0 0.0 0.00 0.00 0.00 25 1014.3
20260501221510 25 0.0 0.0 0.00 0.00 0.00 25 1014.5
20260501220008 25 0.0 0.0 0.00 0.00 0.00 25 1014.7
20260501214504 25 0.0 0.0 0.00 0.00 0.00 26 1014.8
20260501213001 24 0.0 0.0 0.00 0.00 0.00 26 1015.0
20260501211558 23 0.0 0.0 0.00 0.00 0.00 26 1015.1
20260501210058 23 0.0 0.0 0.00 0.00 0.00 26 1015.2
20260501204554 23 0.0 0.0 0.00 0.00 0.00 26 1015.3
20260501203052 22 0.0 0.0 0.00 0.00 0.00 27 1015.4
20260501201548 22 0.0 0.0 0.00 0.00 0.00 27 1015.5
20260501200045 21 0.0 0.0 0.00 0.00 0.00 28 1015.6